"read_dt","SO2 (ppb)","flags","PMT voltage (V)","lamp voltage (V)","lamp intensity (Hz)","internal temp (C)","react chamber temp (C)","sample flow (l/min)","pres (mmHg)","SO2 bkg (ppb)","SO2 coefficient"
2014-12-27 00:00:00,2127E-3,5C000000,-0724,0836,12079,028.4,045.4,0.451,739.7,01.18,0.508
2014-12-27 00:01:00,2158E-3,5C000000,-0724,0837,12173,028.4,045.4,0.451,739.7,01.18,0.508
2014-12-27 00:02:00,2106E-3,5C000000,-0724,0836,12127,028.4,045.5,0.451,739.6,01.18,0.508
2014-12-27 00:03:00,2200E-3,5C000000,-0724,0837,12100,028.4,045.4,0.451,739.7,01.18,0.508
2014-12-27 00:04:00,2055E-3,5C000000,-0724,0837,12201,028.4,045.4,0.451,739.7,01.18,0.508
2014-12-27 00:05:00,2032E-3,5C000000,-0724,0836,11903,028.4,045.4,0.451,739.7,01.18,0.508
2014-12-27 00:06:00,2204E-3,5C000000,-0724,0837,12291,028.4,045.4,0.451,739.6,01.18,0.508
2014-12-27 00:07:00,2197E-3,5C000000,-0724,0836,12146,028.4,045.4,0.451,739.6,01.18,0.508
2014-12-27 00:08:00,2022E-3,5C000000,-0724,0837,12028,028.5,045.5,0.451,739.6,01.18,0.508
2014-12-27 00:09:00,2053E-3,5C000000,-0724,0836,12119,028.5,045.4,0.451,739.7,01.18,0.508
2014-12-27 00:10:00,2176E-3,5C000000,-0724,0837,12174,028.5,045.4,0.451,739.7,01.18,0.508
2014-12-27 00:11:00,2075E-3,5C000000,-0724,0836,12061,028.5,045.5,0.451,739.7,01.18,0.508
2014-12-27 00:12:00,2177E-3,5C000000,-0724,0837,12096,028.5,045.4,0.451,739.7,01.18,0.508
2014-12-27 00:13:00,2144E-3,5C000000,-0724,0837,12057,028.5,045.4,0.451,739.7,01.18,0.508
2014-12-27 00:14:00,2117E-3,5C000000,-0724,0837,12092,028.5,045.4,0.451,739.7,01.18,0.508
2014-12-27 00:15:00,2072E-3,5C000000,-0724,0837,12154,028.5,045.4,0.451,739.7,01.18,0.508
2014-12-27 00:16:00,1995E-3,5C000000,-0724,0837,12072,028.5,045.4,0.450,739.7,01.18,0.508
2014-12-27 00:17:00,2063E-3,5C000000,-0724,0836,12163,028.5,045.4,0.451,739.7,01.18,0.508
2014-12-27 00:18:00,2000E-3,5C000000,-0724,0836,12280,028.5,045.4,0.451,739.8,01.18,0.508
2014-12-27 00:19:00,2135E-3,5C000000,-0724,0837,12208,028.5,045.5,0.451,739.8,01.18,0.508
2014-12-27 00:20:00,1958E-3,5C000000,-0724,0836,12210,028.5,045.4,0.450,739.8,01.18,0.508
2014-12-27 00:21:00,2050E-3,5C000000,-0724,0837,12108,028.5,045.4,0.450,739.8,01.18,0.508
2014-12-27 00:22:00,2154E-3,5C000000,-0724,0837,12161,028.5,045.5,0.451,739.8,01.18,0.508
2014-12-27 00:23:00,2127E-3,5C000000,-0724,0837,12219,028.5,045.4,0.451,739.8,01.18,0.508
2014-12-27 00:24:00,2073E-3,5C000000,-0724,0837,12097,028.5,045.4,0.451,739.7,01.18,0.508
2014-12-27 00:25:00,2213E-3,5C000000,-0724,0837,12161,028.5,045.5,0.451,739.8,01.18,0.508
2014-12-27 00:26:00,2227E-3,5C000000,-0724,0836,12187,028.6,045.5,0.450,739.8,01.18,0.508
2014-12-27 00:27:00,2167E-3,5C000000,-0724,0838,12196,028.5,045.4,0.451,739.8,01.18,0.508
2014-12-27 00:28:00,2156E-3,5C000000,-0724,0837,12154,028.6,045.4,0.451,739.8,01.18,0.508
2014-12-27 00:29:00,2061E-3,5C000000,-0724,0837,12142,028.6,045.4,0.451,739.8,01.18,0.508
2014-12-27 00:30:00,2082E-3,5C000000,-0724,0837,12255,028.6,045.4,0.451,739.8,01.18,0.508
2014-12-27 00:31:00,2175E-3,5C000000,-0724,0836,12010,028.6,045.4,0.450,739.8,01.18,0.508
2014-12-27 00:32:00,2155E-3,5C000000,-0724,0836,12171,028.6,045.4,0.450,739.8,01.18,0.508
2014-12-27 00:33:00,1981E-3,5C000000,-0724,0837,12146,028.6,045.4,0.451,739.8,01.18,0.508
2014-12-27 00:34:00,2080E-3,5C000000,-0724,0837,12020,028.6,045.4,0.451,739.8,01.18,0.508
2014-12-27 00:35:00,2126E-3,5C000000,-0724,0838,12197,028.6,045.5,0.451,739.7,01.18,0.508
2014-12-27 00:36:00,2076E-3,5C000000,-0724,0836,12071,028.6,045.5,0.450,739.7,01.18,0.508
2014-12-27 00:37:00,2122E-3,5C000000,-0724,0837,12255,028.6,045.5,0.450,739.7,01.18,0.508
2014-12-27 00:38:00,2166E-3,5C000000,-0724,0837,12151,028.6,045.5,0.451,739.7,01.18,0.508
2014-12-27 00:39:00,2112E-3,5C000000,-0724,0836,12164,028.6,045.5,0.451,739.7,01.18,0.508
2014-12-27 00:40:00,1997E-3,5C000000,-0724,0837,12173,028.6,045.4,0.450,739.7,01.18,0.508
2014-12-27 00:41:00,2180E-3,5C000000,-0724,0836,12221,028.6,045.4,0.451,739.7,01.18,0.508
2014-12-27 00:42:00,2111E-3,5C000000,-0724,0837,12202,028.6,045.5,0.451,739.7,01.18,0.508
2014-12-27 00:43:00,2091E-3,5C000000,-0724,0837,12118,028.6,045.5,0.451,739.7,01.18,0.508
2014-12-27 00:44:00,2175E-3,5C000000,-0724,0837,12189,028.6,045.5,0.450,739.7,01.18,0.508
2014-12-27 00:45:00,2138E-3,5C000000,-0724,0837,12213,028.6,045.5,0.450,739.7,01.18,0.508
2014-12-27 00:46:00,2019E-3,5C000000,-0724,0837,12171,028.6,045.5,0.451,739.7,01.18,0.508
2014-12-27 00:47:00,2004E-3,5C000000,-0724,0837,12007,028.7,045.4,0.451,739.7,01.18,0.508
2014-12-27 00:48:00,2090E-3,5C000000,-0724,0836,12248,028.7,045.5,0.450,739.7,01.18,0.508
2014-12-27 00:49:00,2100E-3,5C000000,-0724,0837,12120,028.7,045.5,0.450,739.7,01.18,0.508
2014-12-27 00:50:00,2161E-3,5C000000,-0724,0837,12197,028.7,045.5,0.450,739.7,01.18,0.508
2014-12-27 00:51:00,2055E-3,5C000000,-0724,0838,12062,028.7,045.5,0.451,739.7,01.18,0.508
2014-12-27 00:52:00,2095E-3,5C000000,-0724,0837,12165,028.7,045.5,0.451,739.7,01.18,0.508
2014-12-27 00:53:00,2037E-3,5C000000,-0724,0837,12120,028.7,045.5,0.450,739.7,01.18,0.508
2014-12-27 00:54:00,2010E-3,5C000000,-0724,0837,12071,028.7,045.5,0.450,739.8,01.18,0.508
2014-12-27 00:55:00,2032E-3,5C000000,-0724,0837,12011,028.7,045.5,0.450,739.8,01.18,0.508
2014-12-27 00:56:00,2081E-3,5C000000,-0724,0836,12183,028.7,045.4,0.451,739.8,01.18,0.508
2014-12-27 00:57:00,2134E-3,5C000000,-0724,0837,12021,028.7,045.4,0.451,739.8,01.18,0.508
2014-12-27 00:58:00,2086E-3,5C000000,-0724,0837,12086,028.7,045.5,0.451,739.8,01.18,0.508
2014-12-27 00:59:00,2082E-3,5C000000,-0724,0837,12117,028.7,045.5,0.450,739.8,01.18,0.508
2014-12-27 01:00:00,2058E-3,5C000000,-0724,0837,12123,028.7,045.5,0.450,739.8,01.18,0.508
2014-12-27 01:01:00,2121E-3,5C000000,-0724,0837,12127,028.7,045.5,0.451,739.8,01.18,0.508
2014-12-27 01:02:00,2146E-3,5C000000,-0724,0837,12089,028.7,045.5,0.451,739.8,01.18,0.508
2014-12-27 01:03:00,2184E-3,5C000000,-0724,0835,12200,028.7,045.4,0.450,739.8,01.18,0.508
2014-12-27 01:04:00,2265E-3,5C000000,-0724,0837,12289,028.7,045.4,0.450,739.8,01.18,0.508
2014-12-27 01:05:00,2200E-3,5C000000,-0724,0837,12063,028.7,045.5,0.450,739.8,01.18,0.508
2014-12-27 01:06:00,2046E-3,5C000000,-0724,0837,12029,028.7,045.5,0.451,739.7,01.18,0.508
2014-12-27 01:07:00,2157E-3,5C000000,-0724,0836,11991,028.7,045.5,0.451,739.7,01.18,0.508
2014-12-27 01:08:00,2137E-3,5C000000,-0724,0838,12125,028.7,045.4,0.450,739.7,01.18,0.508
2014-12-27 01:09:00,2234E-3,5C000000,-0724,0837,12112,028.7,045.5,0.450,739.7,01.18,0.508
2014-12-27 01:10:00,2056E-3,5C000000,-0724,0837,12213,028.7,045.5,0.450,739.7,01.18,0.508
2014-12-27 01:11:00,2055E-3,5C000000,-0724,0836,12082,028.7,045.5,0.451,739.7,01.18,0.508
2014-12-27 01:12:00,1978E-3,5C000000,-0724,0837,12104,028.7,045.5,0.450,739.7,01.18,0.508
2014-12-27 01:13:00,2166E-3,5C000000,-0724,0837,12160,028.8,045.5,0.450,739.7,01.18,0.508
2014-12-27 01:14:00,1982E-3,5C000000,-0724,0837,11992,028.8,045.5,0.450,739.7,01.18,0.508
2014-12-27 01:15:00,2176E-3,5C000000,-0724,0836,12175,028.8,045.5,0.450,739.7,01.18,0.508
2014-12-27 01:16:00,2031E-3,5C000000,-0724,0836,11910,028.8,045.5,0.451,739.7,01.18,0.508
2014-12-27 01:17:00,2105E-3,5C000000,-0724,0837,12032,028.8,045.5,0.450,739.7,01.18,0.508
2014-12-27 01:18:00,2101E-3,5C000000,-0724,0836,12082,028.8,045.4,0.450,739.6,01.18,0.508
2014-12-27 01:19:00,1919E-3,5C000000,-0724,0837,12128,028.8,045.5,0.450,739.6,01.18,0.508
2014-12-27 01:20:00,2065E-3,5C000000,-0724,0837,12106,028.8,045.5,0.450,739.6,01.18,0.508
2014-12-27 01:21:00,2188E-3,5C000000,-0724,0837,12183,028.8,045.5,0.451,739.6,01.18,0.508
2014-12-27 01:22:00,1955E-3,5C000000,-0724,0837,12227,028.8,045.5,0.450,739.6,01.18,0.508
2014-12-27 01:23:00,2183E-3,5C000000,-0724,0837,12043,028.8,045.5,0.450,739.6,01.18,0.508
2014-12-27 01:24:00,2075E-3,5C000000,-0724,0836,12069,028.8,045.5,0.450,739.7,01.18,0.508
2014-12-27 01:25:00,2155E-3,5C000000,-0724,0836,12090,028.8,045.5,0.450,739.6,01.18,0.508
2014-12-27 01:26:00,2129E-3,5C000000,-0724,0837,12037,028.8,045.4,0.451,739.6,01.18,0.508
2014-12-27 01:27:00,2064E-3,5C000000,-0724,0836,12009,028.8,045.5,0.451,739.6,01.18,0.508
2014-12-27 01:28:00,2170E-3,5C000000,-0724,0837,12084,028.8,045.5,0.450,739.6,01.18,0.508
2014-12-27 01:29:00,2124E-3,5C000000,-0724,0837,12194,028.8,045.5,0.450,739.6,01.18,0.508
2014-12-27 01:30:00,2138E-3,5C000000,-0724,0837,12056,028.8,045.5,0.450,739.6,01.18,0.508
2014-12-27 01:31:00,2015E-3,5C000000,-0724,0837,12074,028.8,045.4,0.451,739.6,01.18,0.508
2014-12-27 01:32:00,2021E-3,5C000000,-0724,0837,12047,028.8,045.5,0.451,739.6,01.18,0.508
2014-12-27 01:33:00,2323E-3,5C000000,-0724,0836,12167,028.8,045.5,0.450,739.6,01.18,0.508
2014-12-27 01:34:00,2063E-3,5C000000,-0724,0837,12146,028.8,045.5,0.450,739.6,01.18,0.508
2014-12-27 01:35:00,2113E-3,5C000000,-0724,0836,12178,028.8,045.5,0.450,739.6,01.18,0.508
2014-12-27 01:36:00,2142E-3,5C000000,-0724,0837,11865,028.8,045.5,0.451,739.7,01.18,0.508
2014-12-27 01:37:00,1995E-3,5C000000,-0724,0837,12180,028.8,045.5,0.451,739.6,01.18,0.508
2014-12-27 01:38:00,2046E-3,5C000000,-0724,0836,12246,028.8,045.4,0.450,739.6,01.18,0.508
2014-12-27 01:39:00,2164E-3,5C000000,-0724,0836,12116,028.8,045.4,0.450,739.6,01.18,0.508
2014-12-27 01:40:00,2101E-3,5C000000,-0724,0835,12196,028.8,045.4,0.450,739.6,01.18,0.508
2014-12-27 01:41:00,2048E-3,5C000000,-0724,0836,12201,028.8,045.5,0.451,739.7,01.18,0.508
2014-12-27 01:42:00,2104E-3,5C000000,-0724,0836,12214,028.8,045.5,0.451,739.7,01.18,0.508
2014-12-27 01:43:00,1933E-3,5C000000,-0724,0836,11901,028.8,045.5,0.450,739.6,01.18,0.508
2014-12-27 01:44:00,2122E-3,5C000000,-0724,0836,12061,028.8,045.4,0.450,739.7,01.18,0.508
2014-12-27 01:45:00,2062E-3,5C000000,-0724,0836,12240,028.8,045.4,0.450,739.7,01.18,0.508
2014-12-27 01:46:00,2113E-3,5C000000,-0724,0836,12255,028.8,045.4,0.451,739.7,01.18,0.508
2014-12-27 01:47:00,2128E-3,5C000000,-0724,0836,12247,028.8,045.4,0.451,739.8,01.18,0.508
2014-12-27 01:48:00,2001E-3,5C000000,-0724,0836,12216,028.8,045.4,0.451,739.8,01.18,0.508
2014-12-27 01:49:00,2126E-3,5C000000,-0724,0836,12084,028.8,045.4,0.450,739.8,01.18,0.508
2014-12-27 01:50:00,2136E-3,5C000000,-0724,0837,12272,028.8,045.5,0.450,739.8,01.18,0.508
2014-12-27 01:51:00,2160E-3,5C000000,-0724,0837,12171,028.8,045.5,0.451,739.8,01.18,0.508
2014-12-27 01:52:00,2035E-3,5C000000,-0724,0836,12229,028.8,045.4,0.451,739.7,01.18,0.508
2014-12-27 01:53:00,2129E-3,5C000000,-0724,0837,12176,028.8,045.4,0.450,739.7,01.18,0.508
2014-12-27 01:54:00,2170E-3,5C000000,-0724,0837,12135,028.8,045.5,0.450,739.8,01.18,0.508
2014-12-27 01:55:00,2056E-3,5C000000,-0724,0836,12199,028.8,045.5,0.450,739.8,01.18,0.508
2014-12-27 01:56:00,2021E-3,5C000000,-0724,0836,12091,028.8,045.5,0.450,739.7,01.18,0.508
2014-12-27 01:57:00,2121E-3,5C000000,-0724,0837,11979,028.8,045.5,0.451,739.8,01.18,0.508
2014-12-27 01:58:00,2080E-3,5C000000,-0724,0836,12128,028.8,045.4,0.450,739.8,01.18,0.508
2014-12-27 01:59:00,2092E-3,5C000000,-0724,0835,12251,028.8,045.4,0.450,739.9,01.18,0.508
2014-12-27 02:00:00,2091E-3,5C000000,-0724,0837,12227,028.8,045.4,0.450,739.9,01.18,0.508
2014-12-27 02:01:00,2103E-3,5C000000,-0724,0836,12139,028.8,045.5,0.450,739.9,01.18,0.508
2014-12-27 02:02:00,2007E-3,5C000000,-0724,0836,12158,028.8,045.5,0.451,739.9,01.18,0.508
2014-12-27 02:03:00,2060E-3,5C000000,-0724,0837,12203,028.8,045.5,0.451,739.9,01.18,0.508
2014-12-27 02:04:00,2070E-3,5C000000,-0724,0837,12367,028.8,045.5,0.450,739.9,01.18,0.508
2014-12-27 02:05:00,2086E-3,5C000000,-0724,0838,12173,028.8,045.5,0.450,739.9,01.18,0.508
2014-12-27 02:06:00,2163E-3,5C000000,-0724,0836,12163,028.8,045.5,0.450,739.9,01.18,0.508
2014-12-27 02:07:00,2068E-3,5C000000,-0724,0837,12195,028.8,045.5,0.451,739.9,01.18,0.508
2014-12-27 02:08:00,2150E-3,5C000000,-0724,0836,12135,028.8,045.5,0.451,739.9,01.18,0.508
2014-12-27 02:09:00,2058E-3,5C000000,-0724,0838,11899,028.8,045.5,0.450,739.9,01.18,0.508
2014-12-27 02:10:00,2087E-3,5C000000,-0724,0836,12079,028.8,045.5,0.450,739.9,01.18,0.508
2014-12-27 02:11:00,2138E-3,5C000000,-0724,0837,12001,028.8,045.4,0.450,739.9,01.18,0.508
2014-12-27 02:12:00,2193E-3,5C000000,-0724,0836,12066,028.8,045.5,0.451,739.9,01.18,0.508
2014-12-27 02:13:00,2037E-3,5C000000,-0724,0837,12227,028.8,045.5,0.450,739.9,01.18,0.508
2014-12-27 02:14:00,1857E-3,5C000000,-0724,0836,12154,028.9,045.5,0.450,739.9,01.18,0.508
2014-12-27 02:15:00,2158E-3,5C000000,-0724,0836,12084,028.8,045.5,0.450,740.0,01.18,0.508
2014-12-27 02:16:00,2064E-3,5C000000,-0724,0837,12197,028.8,045.4,0.451,740.0,01.18,0.508
2014-12-27 02:17:00,2128E-3,5C000000,-0724,0836,12117,028.9,045.5,0.451,740.0,01.18,0.508
2014-12-27 02:18:00,2160E-3,5C000000,-0724,0836,12094,028.9,045.5,0.450,740.0,01.18,0.508
2014-12-27 02:19:00,2143E-3,5C000000,-0724,0837,12261,028.9,045.5,0.450,740.0,01.18,0.508
2014-12-27 02:20:00,2104E-3,5C000000,-0724,0837,12104,028.9,045.5,0.450,740.0,01.18,0.508
2014-12-27 02:21:00,2095E-3,5C000000,-0724,0837,12123,028.9,045.5,0.451,739.9,01.18,0.508
2014-12-27 02:22:00,2117E-3,5C000000,-0724,0836,12063,028.9,045.5,0.450,739.9,01.18,0.508
2014-12-27 02:23:00,2029E-3,5C000000,-0724,0837,12192,028.9,045.5,0.450,739.9,01.18,0.508
2014-12-27 02:24:00,1930E-3,5C000000,-0724,0837,12166,028.9,045.4,0.450,739.9,01.18,0.508
2014-12-27 02:25:00,2083E-3,5C000000,-0724,0837,12163,028.9,045.4,0.451,739.9,01.18,0.508
2014-12-27 02:26:00,2120E-3,5C000000,-0724,0837,12195,028.9,045.5,0.450,739.9,01.18,0.508
2014-12-27 02:27:00,2229E-3,5C000000,-0724,0837,12155,028.9,045.5,0.450,739.9,01.18,0.508
2014-12-27 02:28:00,2014E-3,5C000000,-0724,0836,12043,028.9,045.5,0.450,739.9,01.18,0.508
2014-12-27 02:29:00,2201E-3,5C000000,-0724,0837,12154,028.9,045.5,0.450,739.9,01.18,0.508
2014-12-27 02:30:00,1963E-3,5C000000,-0724,0837,12089,028.9,045.5,0.451,739.9,01.18,0.508
2014-12-27 02:31:00,2235E-3,5C000000,-0724,0837,12199,028.9,045.4,0.450,739.9,01.18,0.508
2014-12-27 02:32:00,2159E-3,5C000000,-0724,0836,12090,028.9,045.5,0.450,739.9,01.18,0.508
2014-12-27 02:33:00,2238E-3,5C000000,-0724,0837,12075,028.9,045.5,0.450,739.9,01.18,0.508
2014-12-27 02:34:00,2155E-3,5C000000,-0724,0837,12153,028.9,045.5,0.451,739.9,01.18,0.508
2014-12-27 02:35:00,2084E-3,5C000000,-0724,0837,11971,028.9,045.5,0.450,739.8,01.18,0.508
2014-12-27 02:36:00,2130E-3,5C000000,-0724,0837,12094,028.9,045.5,0.450,739.8,01.18,0.508
2014-12-27 02:37:00,2015E-3,5C000000,-0724,0837,12090,028.9,045.5,0.450,739.8,01.18,0.508
2014-12-27 02:38:00,2218E-3,5C000000,-0724,0837,12156,028.9,045.5,0.450,739.8,01.18,0.508
2014-12-27 02:39:00,2100E-3,5C000000,-0724,0837,12035,029.0,045.5,0.451,739.8,01.18,0.508
2014-12-27 02:40:00,2100E-3,5C000000,-0724,0837,12201,028.9,045.5,0.450,739.8,01.18,0.508
2014-12-27 02:41:00,2219E-3,5C000000,-0724,0837,11966,029.0,045.5,0.450,739.8,01.18,0.508
2014-12-27 02:42:00,2065E-3,5C000000,-0724,0837,12301,028.9,045.4,0.450,739.7,01.18,0.508
2014-12-27 02:43:00,2232E-3,5C000000,-0724,0837,12324,029.0,045.5,0.450,739.8,01.18,0.508
2014-12-27 02:44:00,2085E-3,5C000000,-0724,0836,11917,029.0,045.5,0.451,739.8,01.18,0.508
2014-12-27 02:45:00,2094E-3,5C000000,-0724,0836,12204,029.0,045.5,0.450,739.8,01.18,0.508
2014-12-27 02:46:00,2133E-3,5C000000,-0724,0837,12210,029.0,045.5,0.450,739.8,01.18,0.508
2014-12-27 02:47:00,2025E-3,5C000000,-0724,0837,12060,029.0,045.5,0.450,739.8,01.18,0.508
2014-12-27 02:48:00,2104E-3,5C000000,-0724,0836,12183,029.0,045.5,0.450,739.8,01.18,0.508
2014-12-27 02:49:00,2168E-3,5C000000,-0724,0837,12159,029.0,045.5,0.451,739.8,01.18,0.508
2014-12-27 02:50:00,2118E-3,5C000000,-0724,0837,12126,029.0,045.5,0.450,739.8,01.18,0.508
2014-12-27 02:51:00,2049E-3,5C000000,-0724,0837,12076,029.0,045.5,0.450,739.9,01.18,0.508
2014-12-27 02:52:00,2246E-3,5C000000,-0724,0837,12132,028.9,045.5,0.450,739.9,01.18,0.508
2014-12-27 02:53:00,2163E-3,5C000000,-0724,0837,12028,029.0,045.5,0.450,739.9,01.18,0.508
2014-12-27 02:54:00,2062E-3,5C000000,-0724,0837,12264,028.9,045.5,0.451,739.9,01.18,0.508
2014-12-27 02:55:00,2113E-3,5C000000,-0724,0837,12179,028.9,045.5,0.450,739.9,01.18,0.508
2014-12-27 02:56:00,2226E-3,5C000000,-0724,0836,12021,028.9,045.5,0.450,740.0,01.18,0.508
2014-12-27 02:57:00,2154E-3,5C000000,-0724,0836,12065,028.9,045.4,0.450,740.0,01.18,0.508
2014-12-27 02:58:00,2027E-3,5C000000,-0724,0837,12144,028.8,045.5,0.450,740.0,01.18,0.508
2014-12-27 02:59:00,2162E-3,5C000000,-0724,0837,12129,028.8,045.5,0.451,740.0,01.18,0.508
2014-12-27 03:00:00,1947E-3,5C000000,-0724,0836,12148,028.8,045.5,0.450,740.0,01.18,0.508
2014-12-27 03:01:00,2137E-3,5C000000,-0724,0837,12141,028.8,045.4,0.450,740.0,01.18,0.508
2014-12-27 03:02:00,2185E-3,5C000000,-0724,0837,12174,028.7,045.5,0.450,740.0,01.18,0.508
2014-12-27 03:03:00,1988E-3,5C000000,-0724,0837,12112,028.8,045.5,0.451,740.0,01.18,0.508
2014-12-27 03:04:00,2152E-3,5C000000,-0724,0836,12222,028.7,045.5,0.451,740.0,01.18,0.508
2014-12-27 03:05:00,2133E-3,5C000000,-0724,0836,12092,028.7,045.4,0.451,740.0,01.18,0.508
2014-12-27 03:06:00,2086E-3,5C000000,-0724,0836,12071,028.7,045.4,0.450,740.0,01.18,0.508
2014-12-27 03:07:00,2069E-3,5C000000,-0724,0836,12052,028.7,045.4,0.450,739.9,01.18,0.508
2014-12-27 03:08:00,1976E-3,5C000000,-0724,0836,12015,028.7,045.4,0.451,739.9,01.18,0.508
2014-12-27 03:09:00,2073E-3,5C000000,-0724,0837,12104,028.7,045.4,0.451,739.9,01.18,0.508
2014-12-27 03:10:00,2058E-3,5C000000,-0724,0836,12077,028.7,045.5,0.451,739.9,01.18,0.508
2014-12-27 03:11:00,2141E-3,5C000000,-0724,0836,12237,028.7,045.5,0.450,739.9,01.18,0.508
2014-12-27 03:12:00,2137E-3,5C000000,-0724,0837,12159,028.7,045.4,0.451,739.9,01.18,0.508
2014-12-27 03:13:00,2167E-3,5C000000,-0724,0837,12150,028.7,045.4,0.451,739.9,01.18,0.508
2014-12-27 03:14:00,2049E-3,5C000000,-0724,0837,11975,028.7,045.5,0.451,739.9,01.18,0.508
2014-12-27 03:15:00,2100E-3,5C000000,-0724,0837,12104,028.7,045.4,0.451,739.9,01.18,0.508
2014-12-27 03:16:00,2066E-3,5C000000,-0724,0837,12274,028.7,045.4,0.450,739.9,01.18,0.508
2014-12-27 03:17:00,2136E-3,5C000000,-0724,0837,12070,028.7,045.5,0.450,739.9,01.18,0.508
2014-12-27 03:18:00,2063E-3,5C000000,-0724,0837,12094,028.7,045.4,0.451,739.9,01.18,0.508
2014-12-27 03:19:00,2048E-3,5C000000,-0724,0836,11948,028.7,045.5,0.451,739.9,01.18,0.508
2014-12-27 03:20:00,2109E-3,5C000000,-0724,0836,12300,028.7,045.4,0.451,739.9,01.18,0.508
2014-12-27 03:21:00,2152E-3,5C000000,-0724,0838,12193,028.7,045.4,0.450,739.9,01.18,0.508
2014-12-27 03:22:00,1995E-3,5C000000,-0724,0837,12153,028.6,045.5,0.450,739.8,01.18,0.508
2014-12-27 03:23:00,2129E-3,5C000000,-0724,0836,12190,028.7,045.4,0.451,739.8,01.18,0.508
2014-12-27 03:24:00,2222E-3,5C000000,-0724,0837,12189,028.6,045.4,0.451,739.9,01.18,0.508
2014-12-27 03:25:00,2153E-3,5C000000,-0724,0836,12174,028.6,045.5,0.451,739.9,01.18,0.508
2014-12-27 03:26:00,2096E-3,5C000000,-0724,0836,12085,028.6,045.5,0.451,739.9,01.18,0.508
2014-12-27 03:27:00,2074E-3,5C000000,-0724,0836,12138,028.6,045.5,0.450,739.9,01.18,0.508
2014-12-27 03:28:00,2139E-3,5C000000,-0724,0836,11914,028.6,045.4,0.450,739.9,01.18,0.508
2014-12-27 03:29:00,1909E-3,5C000000,-0724,0836,12086,028.6,045.4,0.451,740.0,01.18,0.508
2014-12-27 03:30:00,2052E-3,5C000000,-0724,0838,12043,028.6,045.4,0.451,740.0,01.18,0.508
2014-12-27 03:31:00,2181E-3,5C000000,-0724,0837,12145,028.6,045.5,0.451,740.0,01.18,0.508
2014-12-27 03:32:00,2163E-3,5C000000,-0724,0836,12201,028.6,045.5,0.450,739.9,01.18,0.508
2014-12-27 03:33:00,2102E-3,5C000000,-0724,0837,12152,028.6,045.4,0.451,739.9,01.18,0.508
2014-12-27 03:34:00,2106E-3,5C000000,-0724,0837,12125,028.6,045.4,0.451,739.9,01.18,0.508
2014-12-27 03:35:00,2118E-3,5C000000,-0724,0837,12231,028.6,045.4,0.451,739.8,01.18,0.508
2014-12-27 03:36:00,2208E-3,5C000000,-0724,0837,11987,028.6,045.5,0.450,739.9,01.18,0.508
2014-12-27 03:37:00,1920E-3,5C000000,-0724,0836,12005,028.6,045.4,0.450,739.9,01.18,0.508
2014-12-27 03:38:00,2114E-3,5C000000,-0724,0836,12176,028.6,045.4,0.451,740.0,01.18,0.508
2014-12-27 03:39:00,2040E-3,5C000000,-0724,0837,12119,028.6,045.5,0.451,740.0,01.18,0.508
2014-12-27 03:40:00,1946E-3,5C000000,-0724,0836,12227,028.6,045.4,0.451,740.0,01.18,0.508
2014-12-27 03:41:00,2058E-3,5C000000,-0724,0836,12209,028.6,045.4,0.451,740.0,01.18,0.508
2014-12-27 03:42:00,2123E-3,5C000000,-0724,0837,12084,028.6,045.4,0.451,740.1,01.18,0.508
2014-12-27 03:43:00,2178E-3,5C000000,-0724,0836,12165,028.6,045.4,0.451,740.1,01.18,0.508
2014-12-27 03:44:00,2094E-3,5C000000,-0724,0837,12161,028.6,045.4,0.451,740.1,01.18,0.508
2014-12-27 03:45:00,2120E-3,5C000000,-0724,0838,12256,028.6,045.4,0.451,740.1,01.18,0.508
2014-12-27 03:46:00,2126E-3,5C000000,-0724,0836,12131,028.6,045.4,0.451,740.0,01.18,0.508
2014-12-27 03:47:00,2001E-3,5C000000,-0724,0836,12225,028.6,045.4,0.450,740.1,01.18,0.508
2014-12-27 03:48:00,2012E-3,5C000000,-0724,0837,12168,028.6,045.4,0.451,740.0,01.18,0.508
2014-12-27 03:49:00,2126E-3,5C000000,-0724,0837,12100,028.6,045.4,0.451,740.1,01.18,0.508
2014-12-27 03:50:00,2107E-3,5C000000,-0724,0837,12104,028.6,045.4,0.451,740.1,01.18,0.508
2014-12-27 03:51:00,2149E-3,5C000000,-0724,0836,12060,028.6,045.4,0.451,740.1,01.18,0.508
2014-12-27 03:52:00,2027E-3,5C000000,-0724,0837,12124,028.6,045.4,0.451,740.1,01.18,0.508
2014-12-27 03:53:00,2196E-3,5C000000,-0724,0836,12185,028.6,045.5,0.451,740.1,01.18,0.508
2014-12-27 03:54:00,2099E-3,5C000000,-0724,0837,11976,028.6,045.5,0.451,740.1,01.18,0.508
2014-12-27 03:55:00,1918E-3,5C000000,-0724,0836,12120,028.6,045.5,0.450,740.1,01.18,0.508
2014-12-27 03:56:00,2139E-3,5C000000,-0724,0836,12149,028.6,045.5,0.450,740.1,01.18,0.508
2014-12-27 03:57:00,2046E-3,5C000000,-0724,0837,12160,028.6,045.5,0.451,740.1,01.18,0.508
2014-12-27 03:58:00,2104E-3,5C000000,-0724,0837,12152,028.6,045.4,0.451,740.1,01.18,0.508
2014-12-27 03:59:00,2016E-3,5C000000,-0724,0837,12020,028.5,045.4,0.451,740.2,01.18,0.508
2014-12-27 04:00:00,2077E-3,5C000000,-0724,0836,12147,028.5,045.5,0.451,740.2,01.18,0.508
2014-12-27 04:01:00,2175E-3,5C000000,-0724,0836,12144,028.5,045.5,0.451,740.3,01.18,0.508
2014-12-27 04:02:00,2150E-3,5C000000,-0724,0836,12218,028.5,045.5,0.451,740.4,01.18,0.508
2014-12-27 04:03:00,2111E-3,5C000000,-0724,0836,12153,028.5,045.4,0.451,740.4,01.18,0.508
2014-12-27 04:04:00,2152E-3,5C000000,-0724,0836,12027,028.5,045.4,0.451,740.5,01.18,0.508
2014-12-27 04:05:00,2073E-3,5C000000,-0724,0837,12017,028.5,045.4,0.451,740.4,01.18,0.508
2014-12-27 04:06:00,2138E-3,5C000000,-0724,0836,12165,028.5,045.4,0.451,740.4,01.18,0.508
2014-12-27 04:07:00,2193E-3,5C000000,-0724,0836,12147,028.5,045.4,0.451,740.4,01.18,0.508
2014-12-27 04:08:00,2098E-3,5C000000,-0724,0836,12191,028.5,045.4,0.451,740.4,01.18,0.508
2014-12-27 04:09:00,2129E-3,5C000000,-0724,0836,12111,028.5,045.4,0.451,740.3,01.18,0.508
2014-12-27 04:10:00,2029E-3,5C000000,-0724,0836,12028,028.5,045.5,0.451,740.2,01.18,0.508
2014-12-27 04:11:00,2067E-3,5C000000,-0724,0836,12160,028.5,045.4,0.451,740.2,01.18,0.508
2014-12-27 04:12:00,2175E-3,5C000000,-0724,0837,12219,028.5,045.5,0.451,740.2,01.18,0.508
2014-12-27 04:13:00,2177E-3,5C000000,-0724,0837,11933,028.5,045.4,0.451,740.2,01.18,0.508
2014-12-27 04:14:00,2070E-3,5C000000,-0724,0837,12043,028.5,045.4,0.451,740.2,01.18,0.508
2014-12-27 04:15:00,2145E-3,5C000000,-0724,0836,12219,028.5,045.4,0.451,740.3,01.18,0.508
2014-12-27 04:16:00,2211E-3,5C000000,-0724,0836,11959,028.5,045.5,0.451,740.3,01.18,0.508
2014-12-27 04:17:00,2128E-3,5C000000,-0724,0836,12001,028.6,045.5,0.451,740.3,01.18,0.508
2014-12-27 04:18:00,2050E-3,5C000000,-0724,0836,12085,028.5,045.5,0.451,740.4,01.18,0.508
2014-12-27 04:19:00,2113E-3,5C000000,-0724,0836,12017,028.6,045.4,0.451,740.4,01.18,0.508
2014-12-27 04:20:00,2123E-3,5C000000,-0724,0836,12302,028.6,045.4,0.451,740.3,01.18,0.508